Stations météo

Publicité
Cherbourg, France (7024): Température de l'air & dewpoint: 18.02.2020 21:00:00 - 24.02.2020 21:00:00 (CET)Cherbourg, France (7024): Température de l'air 5cm: 18.02.2020 21:00:00 - 24.02.2020 21:00:00 (CET)Cherbourg, France (7024): Température de l'air -20cm & Température de l'air -100cm: 18.02.2020 21:00:00 - 24.02.2020 21:00:00 (CET)Cherbourg, France (7024): Vitesse du vent & gusts: 18.02.2020 21:00:00 - 24.02.2020 21:00:00 (CET)Cherbourg, France (7024): Direction du vent: 18.02.2020 21:00:00 - 24.02.2020 21:00:00 (CET)Cherbourg, France (7024): reduced air pressure: 18.02.2020 21:00:00 - 24.02.2020 21:00:00 (CET)Cherbourg, France (7024): visibility: 18.02.2020 21:00:00 - 24.02.2020 21:00:00 (CET)Cherbourg, France (7024): Ensoleillement: 18.02.2020 21:00:00 - 24.02.2020 21:00:00 (CET)Cherbourg, France (7024): Quantités de précipitations: 18.02.2020 21:00:00 - 24.02.2020 21:00:00 (CET)
Date & Time tt [°C] td [°C] tt 5cm [°C] tt -20cm [°C] tt -100cm [°C] ff [km/h] ff [knt] fx [km/h] fx [knt] dd ppp [hPa] vv [km] sd [min] rr [mm]
24.02.2020 21:00:00 - - - - - - - - - - - - - -
24.02.2020 20:00:00 10,0 9,5 9,7 8,8 8,4 40 21 69 38 WSW 1010,9 14 0 0,2
24.02.2020 19:00:00 10,1 9,5 9,5 8,8 8,4 44 24 69 37 WSW 1011,3 16 0 0,4
24.02.2020 18:00:00 9,8 9,2 9,4 8,8 8,4 46 25 68 37 WSW 1011,3 7 0 0,4
24.02.2020 17:00:00 9,7 8,9 9,3 8,8 8,4 42 23 67 36 WSW 1011,9 8 0 1,0
24.02.2020 16:00:00 9,6 8,8 9,0 8,8 8,4 48 26 74 40 WSW 1012,4 3,5 0 1,0
24.02.2020 15:00:00 9,3 8,4 9,1 8,7 8,4 40 22 72 39 SW 1013,1 2,2 0 0,4
24.02.2020 14:00:00 9,7 8,3 9,3 8,7 8,4 46 25 80 43 WSW 1014,0 2,7 0 0,0
24.02.2020 13:00:00 9,8 8,9 9,4 8,7 8,4 49 26 81 44 WSW 1015,0 6 0 0,2
24.02.2020 12:00:00 9,8 8,7 9,6 8,7 8,4 58 31 86 46 WSW 1015,9 2,7 0 0,2
24.02.2020 11:00:00 10,3 8,4 9,9 8,7 8,4 55 30 81 44 SW 1016,0 10 0 0,0
24.02.2020 10:00:00 10,4 9,0 9,6 8,7 8,4 45 24 79 42 SW 1016,3 54 1 0,0
24.02.2020 09:00:00 9,9 9,1 9,4 8,7 8,4 48 26 81 44 SW 1017,1 7 0 0,0
24.02.2020 08:00:00 9,8 9,2 9,6 8,7 8,4 44 24 72 39 SW 1018,1 3,0 0 0,2
24.02.2020 07:00:00 10,0 9,5 9,7 8,6 8,4 34 18 56 31 WSW 1019,4 2,5 0 0,0
24.02.2020 06:00:00 10,1 9,6 9,8 8,6 8,3 30 16 55 30 WSW 1020,4 3,5 0 0,2
24.02.2020 05:00:00 10,6 10,1 10,4 8,6 8,4 33 18 57 31 SW 1021,0 2,0 0 0,0
24.02.2020 04:00:00 10,9 10,4 10,6 8,6 8,4 36 20 57 31 WSW 1021,6 18 0 0,0
24.02.2020 03:00:00 10,9 10,6 10,6 8,6 8,4 34 18 54 29 WSW 1022,6 2,2 0 0,2
24.02.2020 02:00:00 10,8 10,5 10,1 8,6 8,4 31 17 46 25 WSW 1023,5 1,3 0 0,2
24.02.2020 01:00:00 10,3 10,0 9,4 8,6 8,4 25 13 40 21 WSW 1024,2 2,9 0 0,0
24.02.2020 00:00:00 9,4 9,1 9,1 8,6 8,3 9 5 13 7 SSW 1025,0 1,6 0 0,0
23.02.2020 23:00:00 9,2 8,9 9,0 8,6 8,3 7 4 15 8 SSW 1025,4 1,1 0 0,0
23.02.2020 22:00:00 9,1 8,8 8,9 8,6 8,3 13 7 24 13 WNW 1025,8 0,4 0 0,4
23.02.2020 21:00:00 9,2 8,9 9,0 8,6 8,4 17 9 29 16 W 1025,7 1,6 0 0,0
23.02.2020 20:00:00 9,5 9,0 9,2 8,6 8,4 22 12 40 21 WNW 1025,8 1,9 0 0,0
23.02.2020 19:00:00 9,8 9,2 9,5 8,5 8,3 27 15 49 26 W 1025,0 14 0 0,0
23.02.2020 18:00:00 10,7 10,2 10,5 8,5 8,3 35 19 65 35 W 1024,0 4,6 0 0,0
23.02.2020 17:00:00 11,1 10,6 10,9 8,5 8,3 45 24 70 38 W 1023,1 2,5 0 0,0
23.02.2020 16:00:00 11,3 10,8 11,1 8,4 8,3 46 25 69 37 W 1022,7 1,9 0 0,0
23.02.2020 15:00:00 11,3 10,8 11,2 8,4 8,3 50 27 74 40 W 1022,4 2,4 0 0,0
23.02.2020 14:00:00 11,2 10,7 11,1 8,3 8,3 50 27 79 43 WSW 1022,0 2,3 0 0,0
23.02.2020 13:00:00 11,1 10,5 10,9 8,2 8,3 55 30 84 46 WSW 1021,5 2,1 0 0,2
23.02.2020 12:00:00 10,9 10,3 10,6 8,2 8,3 53 29 80 43 WSW 1021,7 1,8 0 0,2
23.02.2020 11:00:00 10,7 10,1 10,3 8,2 8,3 57 31 89 48 WSW 1021,1 1,7 0 0,0
23.02.2020 10:00:00 10,6 10,0 10,3 8,2 8,3 56 30 81 44 WSW 1020,9 2,9 0 0,4
23.02.2020 09:00:00 10,6 9,8 10,2 8,1 8,3 53 28 89 48 WSW 1020,6 2,0 0 0,0
23.02.2020 08:00:00 11,0 9,7 10,4 8,1 8,3 53 29 90 48 SW 1020,2 57 0 0,2
23.02.2020 07:00:00 11,2 9,8 10,7 8,0 8,3 50 27 86 47 SW 1020,9 60 0 0,0
23.02.2020 06:00:00 11,0 9,9 10,3 8,0 8,3 51 27 81 44 SW 1020,8 60 0 0,0
23.02.2020 05:00:00 10,8 9,9 10,1 8,0 8,3 51 28 78 42 SW 1021,6 8 0 0,0
23.02.2020 04:00:00 10,5 9,9 10,1 8,0 8,3 47 26 68 37 SW 1022,2 2,2 0 0,2
23.02.2020 03:00:00 10,7 9,9 10,2 7,9 8,3 47 25 73 40 SW 1022,9 59 0 0,0
23.02.2020 02:00:00 10,5 9,9 10,1 7,9 8,3 38 20 58 31 SW 1024,2 1,8 0 0,0
23.02.2020 01:00:00 10,5 9,9 10,1 7,9 8,4 41 22 65 35 WSW 1024,7 8 0 0,0
23.02.2020 00:00:00 10,6 9,7 9,2 7,9 8,3 36 19 52 28 WSW 1025,6 16 0 0,0
22.02.2020 23:00:00 9,7 8,1 9,3 7,9 8,4 31 17 50 27 WSW 1026,4 13 0 0,0
22.02.2020 22:00:00 10,0 8,6 9,6 7,8 8,4 34 18 47 26 WSW 1026,2 13 0 0,0
22.02.2020 21:00:00 9,9 8,2 9,4 7,8 8,4 31 17 51 28 WSW 1026,4 11 0 0,0
22.02.2020 20:00:00 10,0 8,1 9,5 7,7 8,3 33 18 52 28 W 1026,7 11 0 0,0
22.02.2020 19:00:00 10,3 8,7 10,0 7,7 8,3 38 20 60 33 W 1026,7 10 0 0,0
22.02.2020 18:00:00 10,5 8,9 10,4 7,6 8,4 39 21 66 35 W 1026,4 11 0 0,0
22.02.2020 17:00:00 10,7 9,3 10,8 7,6 8,4 42 23 68 37 W 1025,8 13 0 0,0
22.02.2020 16:00:00 10,7 9,3 10,2 7,5 8,4 44 24 74 40 W 1025,1 17 0 0,0
22.02.2020 15:00:00 10,4 9,5 10,1 7,5 8,4 47 25 72 39 WSW 1024,9 3,9 0 0,0
22.02.2020 14:00:00 10,2 9,4 9,8 7,4 8,4 45 25 74 40 WSW 1024,7 3,8 0 0,0
22.02.2020 13:00:00 10,0 8,8 10,2 7,4 8,4 51 27 81 44 WSW 1024,7 10 0 0,0
22.02.2020 12:00:00 10,0 8,4 8,9 7,3 8,4 50 27 76 41 WSW 1024,1 11 0 0,0
22.02.2020 11:00:00 9,1 8,0 8,6 7,3 8,4 49 27 71 38 WSW 1023,8 2,9 0 0,0
22.02.2020 10:00:00 9,1 7,4 8,6 7,3 8,4 48 26 79 43 WSW 1023,7 8 0 0,0
22.02.2020 09:00:00 9,1 7,0 8,6 7,3 8,4 51 27 79 42 WSW 1023,5 13 0 0,0
22.02.2020 08:00:00 8,8 6,8 7,8 7,3 8,4 54 29 85 46 WSW 1023,0 14 0 0,0
22.02.2020 07:00:00 8,2 5,8 6,6 7,3 8,4 48 26 68 37 WSW 1023,3 17 0 0,0
22.02.2020 06:00:00 7,0 5,1 6,1 7,3 8,4 37 20 62 34 SW 1023,6 19 0 0,0
22.02.2020 05:00:00 6,6 5,2 6,1 7,4 8,4 42 23 70 38 SSW 1022,4 18 0 0,0
22.02.2020 04:00:00 7,1 4,7 6,3 7,4 8,4 44 24 72 39 SW 1021,9 46 0 0,0
22.02.2020 03:00:00 6,9 4,9 5,9 7,4 8,4 41 22 61 33 SW 1023,2 20 0 0,0
22.02.2020 02:00:00 6,7 5,0 5,8 7,4 8,4 30 16 47 26 SW 1024,9 19 0 0,0
22.02.2020 01:00:00 6,6 4,8 5,8 7,4 8,4 33 18 48 26 SSW 1025,3 39 0 0,0
22.02.2020 00:00:00 6,8 4,6 5,8 7,4 8,4 34 18 50 27 SW 1025,7 45 0 0,0
21.02.2020 23:00:00 6,9 4,7 6,2 7,5 8,4 35 19 59 32 SW 1026,3 44 0 0,0
21.02.2020 22:00:00 7,3 4,4 6,6 7,4 8,3 37 20 56 31 SW 1025,9 52 0 0,0
21.02.2020 21:00:00 7,5 5,6 6,8 7,5 8,4 32 18 51 27 SW 1026,2 18 0 0,0
21.02.2020 20:00:00 7,8 5,6 7,0 7,4 8,4 32 18 51 28 SW 1027,0 19 0 0,0
21.02.2020 19:00:00 7,9 5,4 7,2 7,4 8,4 26 14 45 25 SW 1026,7 20 0 0,0
21.02.2020 18:00:00 8,7 5,1 8,4 7,4 8,4 29 16 46 25 WSW 1027,3 20 53 0,0
21.02.2020 17:00:00 9,0 4,8 9,3 7,3 8,4 29 16 59 32 SW 1027,0 35 31 0,0
21.02.2020 16:00:00 9,9 5,1 10,3 7,2 8,4 36 19 68 37 WSW 1027,2 60 40 0,0
21.02.2020 15:00:00 9,4 5,0 9,4 7,2 8,4 39 21 63 34 WSW 1027,3 20 8 0,0
21.02.2020 14:00:00 8,8 4,2 9,5 7,1 8,4 37 20 61 33 WSW 1027,6 42 0 0,0
21.02.2020 13:00:00 9,4 4,6 10,3 7,1 8,4 37 20 55 30 WSW 1028,4 20 37 0,0
21.02.2020 12:00:00 9,1 5,1 9,4 7,1 8,4 32 18 50 27 SW 1028,6 20 50 0,0
21.02.2020 11:00:00 8,3 4,7 8,1 7,1 8,4 31 17 47 26 WSW 1028,6 19 28 0,0
21.02.2020 10:00:00 7,4 5,0 5,9 7,1 8,4 25 14 36 19 SW 1028,5 19 21 0,0
21.02.2020 09:00:00 6,1 4,7 3,6 7,2 8,4 16 9 27 15 SW 1028,6 18 12 0,0
21.02.2020 08:00:00 4,7 3,0 3,9 7,2 8,4 16 9 30 16 SW 1028,0 20 0 0,0
21.02.2020 07:00:00 5,6 2,4 4,2 7,2 8,4 23 12 43 23 WSW 1028,1 58 0 0,0
21.02.2020 06:00:00 5,3 3,0 3,5 7,3 8,4 22 12 34 18 WSW 1028,3 44 0 0,0
21.02.2020 05:00:00 4,6 2,8 3,1 7,3 8,4 19 10 40 22 WSW 1028,1 56 0 0,2
21.02.2020 04:00:00 5,7 2,5 3,0 7,4 8,4 23 12 46 25 W 1028,1 54 0 0,0
21.02.2020 03:00:00 4,6 1,3 2,8 7,5 8,4 16 9 24 13 WSW 1028,1 45 0 0,0
21.02.2020 02:00:00 4,3 1,2 2,3 7,5 8,4 16 9 23 13 WSW 1027,6 40 0 0,0
21.02.2020 01:00:00 4,9 0,8 3,6 7,6 8,4 19 10 28 15 W 1027,1 45 0 0,0
21.02.2020 00:00:00 5,0 0,7 3,9 7,6 8,4 18 10 32 17 W 1026,5 20 0 0,0
20.02.2020 23:00:00 6,2 0,7 4,6 7,7 8,4 26 14 45 25 W 1025,6 20 0 0,0
20.02.2020 22:00:00 5,9 0,8 4,8 7,7 8,4 26 14 48 26 W 1024,7 20 0 0,0
20.02.2020 21:00:00 6,6 1,1 5,4 7,8 8,4 34 18 59 32 WNW 1023,5 49 0 0,0
20.02.2020 20:00:00 6,7 1,0 5,4 7,8 8,4 32 17 51 28 WNW 1022,2 51 0 0,0
20.02.2020 19:00:00 6,4 0,7 5,5 7,8 8,4 38 20 66 35 WNW 1021,1 58 0 0,0
20.02.2020 18:00:00 7,1 2,2 5,3 7,8 8,4 39 21 68 37 WNW 1019,0 43 24 0,2
20.02.2020 17:00:00 7,6 3,4 6,3 7,8 8,4 40 22 65 35 W 1017,2 19 32 0,0
20.02.2020 16:00:00 6,4 5,0 5,7 7,8 8,4 32 17 83 45 WNW 1015,7 8 0 1,6
20.02.2020 15:00:00 7,6 6,4 7,2 7,8 8,4 53 29 79 42 W 1013,7 4,4 0 1,8
20.02.2020 14:00:00 9,2 8,3 8,9 7,7 8,4 48 26 79 42 SW 1011,1 3,9 0 1,0
20.02.2020 13:00:00 9,1 8,0 8,9 7,7 8,4 45 25 79 42 SSW 1011,9 2,1 0 0,4
20.02.2020 12:00:00 9,7 7,1 10,0 7,6 8,4 45 24 68 37 SSW 1012,6 13 15 0,0
20.02.2020 11:00:00 9,7 6,4 9,0 7,6 8,4 38 20 66 36 SSW 1013,2 42 12 0,0
20.02.2020 10:00:00 8,8 6,2 7,8 7,6 8,4 39 21 57 31 SSW 1014,0 51 0 0,0
20.02.2020 09:00:00 8,2 6,3 7,5 7,6 8,4 36 19 53 28 SSW 1014,3 60 0 0,0
20.02.2020 08:00:00 7,9 6,4 7,0 7,7 8,4 37 20 51 28 SSW 1014,4 60 0 0,0
20.02.2020 07:00:00 7,7 6,5 7,0 7,6 8,4 33 18 54 29 SSW 1014,9 12 0 0,0
20.02.2020 06:00:00 7,8 6,7 7,1 7,6 8,4 33 18 49 26 SSW 1015,4 55 0 0,2
20.02.2020 05:00:00 7,7 6,6 6,9 7,6 8,4 32 17 52 28 SW 1015,8 10 0 0,0
20.02.2020 04:00:00 8,0 6,5 7,4 7,7 8,4 31 17 48 26 SW 1016,3 58 0 0,0
20.02.2020 03:00:00 8,0 6,0 7,5 7,7 8,4 25 14 53 29 SSW 1017,0 56 0 0,0
20.02.2020 02:00:00 8,2 6,0 7,6 7,7 8,4 29 16 55 30 SW 1017,8 56 0 0,0
20.02.2020 01:00:00 7,9 5,9 7,5 7,7 8,4 30 16 48 26 SW 1018,4 51 0 0,0
20.02.2020 00:00:00 8,4 6,0 7,6 7,7 8,4 29 16 51 28 SW 1019,0 52 0 0,0
19.02.2020 23:00:00 8,1 5,9 7,4 7,7 8,4 25 14 44 24 SW 1019,7 48 0 0,0
19.02.2020 22:00:00 8,2 6,2 7,9 7,6 8,4 28 15 46 25 SW 1020,1 49 0 0,0
19.02.2020 21:00:00 8,4 6,2 7,4 7,6 8,5 30 16 47 25 SW 1020,6 44 0 0,0
19.02.2020 20:00:00 8,1 5,7 7,5 7,6 8,4 28 15 50 27 WSW 1021,1 18 0 0,0
19.02.2020 19:00:00 8,4 6,2 7,7 7,6 8,5 28 15 48 26 WSW 1021,5 17 0 0,0
19.02.2020 18:00:00 9,0 6,1 8,6 7,5 8,5 35 19 62 34 WSW 1021,8 19 38 0,0
19.02.2020 17:00:00 9,8 7,0 9,7 7,5 8,5 37 20 54 29 WSW 1022,2 17 9 0,0
19.02.2020 16:00:00 9,5 7,4 9,5 7,5 8,5 32 17 53 29 WSW 1022,7 15 0 0,0
19.02.2020 15:00:00 9,1 7,7 8,3 7,4 8,5 30 16 55 30 WSW 1023,4 15 0 0,2
19.02.2020 14:00:00 8,8 7,4 8,3 7,4 8,4 29 16 45 24 SW 1024,2 9 0 0,0
19.02.2020 13:00:00 8,3 6,8 8,1 7,4 8,5 28 15 41 22 SW 1025,1 15 0 0,0
19.02.2020 12:00:00 8,5 6,5 7,7 7,4 8,5 21 11 36 19 WSW 1025,4 18 0 0,0
19.02.2020 11:00:00 7,9 5,4 6,9 7,4 8,5 21 11 31 17 WSW 1025,6 15 0 0,0
19.02.2020 10:00:00 7,4 4,2 6,0 7,4 8,5 16 8 25 14 WSW 1025,8 19 4 0,0
19.02.2020 09:00:00 6,4 3,2 5,7 7,5 8,5 16 9 28 15 W 1025,4 20 0 0,0
19.02.2020 08:00:00 6,4 2,5 5,2 7,5 8,5 19 11 37 20 W 1025,1 46 0 0,0
19.02.2020 07:00:00 5,8 3,0 5,1 7,5 8,5 19 10 41 22 W 1024,8 19 0 0,0
19.02.2020 06:00:00 6,6 2,1 5,7 7,6 8,5 22 12 51 28 WNW 1024,2 20 0 0,0
19.02.2020 05:00:00 6,7 1,8 5,9 7,6 8,5 32 18 54 29 WNW 1023,8 51 0 0,0
19.02.2020 04:00:00 6,8 3,4 5,8 7,6 8,5 27 15 59 32 WNW 1023,5 19 0 0,0
19.02.2020 03:00:00 6,8 2,9 4,6 7,7 8,5 34 19 57 31 WNW 1023,0 20 0 0,0
19.02.2020 02:00:00 5,9 3,6 4,8 7,7 8,5 23 12 46 25 W 1022,5 20 0 0,0
19.02.2020 01:00:00 6,3 4,3 5,0 7,7 8,5 26 14 51 28 WNW 1022,0 20 0 0,0
19.02.2020 00:00:00 5,6 4,6 4,7 7,7 8,5 40 22 71 38 WNW 1021,9 3,8 0 1,6
18.02.2020 23:00:00 7,5 5,6 6,4 7,7 8,5 32 18 57 31 W 1021,1 18 0 1,8
18.02.2020 22:00:00 7,4 6,3 6,3 7,7 8,5 40 22 73 39 W 1020,5 14 0 1,2
18.02.2020 21:00:00 8,0 6,5 7,2 7,7 8,5 46 25 84 45 WSW 1020,7 3,1 0 1,2

tt = Température de l'air
td = dewpoint
tt 5cm = Température de l'air 5cm
tt -20cm = Température de l'air -20cm
tt -100cm = Température de l'air -100cm
ff = Vitesse du vent
fx = gusts
dd = Direction du vent
ppp = reduced air pressure
vv = visibility
sd = Ensoleillement
rr = Quantités de précipitations

stations d'obs. à proximité